Change the Weather History Date:

Wednesday, December 25, 2013

  Actual Average Record
Temperature  
Mean Temperature 30 °F 38 °F  
Max Temperature 36 °F 47 °F 67 °F (1974)
Min Temperature 24 °F 30 °F 9 °F (1983)
Degree Days  
Heating Degree Days 35    
Month to date heating degree days 511  
Since 1 July heating degree days 1154  
Cooling Degree Days 0    
Month to date cooling degree days 0  
Year to date cooling degree days 1523  
Moisture  
Dew Point 14 °F    
Average Humidity 57    
Maximum Humidity 81    
Minimum Humidity 32    
Precipitation  
Precipitation 0.00 in 0.11 in 1.73 in (2006)
Month to date precipitation 4.76 2.84  
Year to date precipitation 42.10 40.25  
Sea Level Pressure  
Sea Level Pressure 30.49 in    
Wind  
Wind Speed 5 mph (North)    
Max Wind Speed 15 mph    
Max Gust Speed 20 mph    
Visibility 10 miles    
Events      
T = Trace of Precipitation, MM = Missing Value Source: NWS Daily Summary

Daily Weather History Graph

Daily Weather History Graph

Search for Another Location

Airport or City:

Trip Planner

Search our weather history database for the weather conditions in past years. The results will help you decide how hot, cold, wet, or windy it might be!

Date:

Astronomy

Dec. 25, 2013 Rise Set
Actual Time 7:15 AM EST 4:48 PM EST
Civil Twilight 6:46 AM EST 5:17 PM EST
Nautical Twilight 6:13 AM EST 5:50 PM EST
Astronomical Twilight 5:41 AM EST 6:22 PM EST
Moon No Moon Rise 11:45 AM EST (12/25)
Length of Visible Light 10h 31m
Length of Day
9h 32m
Waning Gibbous, 49% of the Moon is Illuminated
Dec 25
Waning Gibbous
Jan 1
New
Jan 7
First Quarter
Jan 15
Full
Jan 24
Last Quarter

Hourly Weather History & Observations

Time (EST) Temp. Windchill Dew Point Humidity Pressure Visibility Wind Dir Wind Speed Gust Speed Precip Events Conditions
12:54 AM 28.0 °F 20.0 °F 5.0 °F 38% 30.43 in 10.0 mi North 8.1 mph - N/A   Clear
1:54 AM 28.0 °F 18.6 °F 9.0 °F 45% 30.45 in 10.0 mi North 10.4 mph - N/A   Clear
2:54 AM 27.0 °F 16.7 °F 9.0 °F 47% 30.48 in 10.0 mi North 11.5 mph - N/A   Clear
3:54 AM 26.1 °F 16.8 °F 9.0 °F 49% 30.47 in 10.0 mi North 9.2 mph - N/A   Clear
4:54 AM 26.1 °F 16.8 °F 10.9 °F 53% 30.48 in 10.0 mi North 9.2 mph - N/A   Clear
5:54 AM 25.0 °F 18.1 °F 10.9 °F 55% 30.50 in 10.0 mi North 5.8 mph - N/A   Clear
6:54 AM 24.1 °F 16.0 °F 10.9 °F 57% 30.52 in 10.0 mi North 6.9 mph - N/A   Clear
7:54 AM 25.0 °F 16.3 °F 10.9 °F 55% 30.54 in 10.0 mi North 8.1 mph - N/A   Clear
8:54 AM 28.0 °F 20.8 °F 10.9 °F 49% 30.54 in 10.0 mi Variable 6.9 mph - N/A   Clear
9:54 AM 30.0 °F 21.7 °F 10.9 °F 45% 30.55 in 10.0 mi North 9.2 mph - N/A   Clear
10:54 AM 32.0 °F 24.2 °F 12.9 °F 45% 30.55 in 10.0 mi NE 9.2 mph - N/A   Clear
11:54 AM 34.0 °F 28.8 °F 14.0 °F 44% 30.53 in 10.0 mi North 5.8 mph - N/A   Clear
12:54 PM 34.0 °F 31.0 °F 10.9 °F 38% 30.51 in 10.0 mi Variable 3.5 mph - N/A   Clear
1:54 PM 36.0 °F 32.1 °F 16.0 °F 44% 30.50 in 10.0 mi SSE 4.6 mph - N/A   Clear
2:54 PM 35.1 °F 31.0 °F 15.1 °F 44% 30.50 in 10.0 mi Variable 4.6 mph - N/A   Clear
3:54 PM 34.0 °F - 17.1 °F 50% 30.51 in 10.0 mi North - - N/A   Clear
4:54 PM 30.9 °F 26.2 °F 18.0 °F 59% 30.51 in 10.0 mi South 4.6 mph - N/A   Clear
5:54 PM 30.0 °F 26.5 °F 18.0 °F 61% 30.51 in 10.0 mi South 3.5 mph - N/A   Clear
6:54 PM 30.0 °F - 19.9 °F 66% 30.51 in 10.0 mi Calm Calm - N/A   Clear
7:54 PM 27.0 °F - 19.9 °F 75% 30.49 in 10.0 mi Calm Calm - N/A   Clear
8:54 PM 27.0 °F - 19.9 °F 75% 30.47 in 10.0 mi Calm Calm - N/A   Clear
9:54 PM 25.0 °F - 19.9 °F 81% 30.45 in 10.0 mi Calm Calm - N/A   Clear
10:54 PM 24.1 °F 19.7 °F 19.9 °F 84% 30.44 in 10.0 mi NW 3.5 mph - N/A   Clear
11:54 PM 25.0 °F - 18.0 °F 75% 30.42 in 10.0 mi Calm Calm - N/A   Clear